Regional Weather Roundup
Issued by NWS

Home | Current Version | Previous Version | Graphics & Text | Print | Product List | Glossary On
Versions: 1 2 3 4 5 6 7 8 9 10 11 12 13 14 15 16 17 18 19 20 21 22 23 24 25 26 27 28 29 30 31 32 33 34 35 36 37 38 39 40 41 42 43 44 45 46 47 48 49 50
000
ASUS43 KFSD 231702
RWRSD

WEATHER ROUNDUP FOR SOUTH DAKOTA
NATIONAL WEATHER SERVICE SIOUX FALLS SD
1200 PM CDT TUE MAY 23 2017

NOTE: "FAIR" INDICATES FEW OR NO CLOUDS BELOW 12,000 FEET WITH NO
SIGNIFICANT WEATHER AND/OR OBSTRUCTIONS TO VISIBILITY.


SDZ001>005-009-010-012>017-231800-
NORTHWEST AND NORTH CENTRAL SOUTH DAKOTA

CITY           SKY/WX    TMP DP  RH WIND       PRES   REMARKS
BUFFALO          N/A     60  36  40 N16G23    30.08F
FAITH            N/A     57  37  47 N20G31    30.09F
MOBRIDGE       CLOUDY    55  37  50 N18G29    30.03R
$$

SDZ012>016-024>037-041>051-057-063-072>074-231800-
SOUTHWEST AND SOUTH CENTRAL SOUTH DAKOTA

CITY           SKY/WX    TMP DP  RH WIND       PRES   REMARKS
RAPID CTY ARPT MOSUNNY   58  37  45 N20G26    30.13F
PIERRE         LGT RAIN  54  39  57 NE21      30.03F
CUSTER         MOSUNNY   52  29  41 N12G18    30.15F
ELLSWORTH AFB  MOSUNNY   57  36  45 N18G26    30.12F
PHILIP         CLOUDY    59  37  44 N22G29    30.07F
PINE RIDGE     MOSUNNY   55  37  50 N16       30.12F
SPEARFISH      FAIR      55  36  47 MISG      30.17F
WINNER         CLOUDY    50  45  83 N16       30.03R
$$

SDZ004>011-016>023-039-040-231800-
NORTHEAST SOUTH DAKOTA

CITY           SKY/WX    TMP DP  RH WIND       PRES   REMARKS
ABERDEEN       CLOUDY    52  41  66 N21G28    29.99S
WATERTOWN      CLOUDY    49  45  86 N18       29.90S
BROOKINGS      CLOUDY    51  45  79 N15       29.89F
SISSETON         N/A     50  47  89 N22       29.92S
$$

SDZ017-020-022-023-036>040-048>070-231800-
SOUTHEAST SOUTH DAKOTA

CITY           SKY/WX    TMP DP  RH WIND       PRES   REMARKS
SIOUX FALLS    LGT RAIN  52  47  83 N9        29.89F
HURON          CLOUDY    53  45  74 N18G25    29.95S
CHAMBERLAIN    CLOUDY    52  42  68 NW16G24   30.00S
MITCHELL       CLOUDY    53  44  71 N18       29.95S
YANKTON        CLOUDY    53  46  77 NW16      29.91F
$$

ABBREVIATIONS USED IN REMARKS
   TC - TEMPERATURE IN CELSIUS
  WCI - WIND CHILL INDEX
   HX - HEAT INDEX
  VSB - VISIBILITY





USA.gov is the U.S. government's official web portal to all federal, state and local government web resources and services.